Location: ??
(34.9170°N, 135.5016°E)
Time: 07:53:24
(UTC+00:00)

Explorer 7 - Pass Details

Date: 03 March 2021
Orbit: 484 x 677 km, 50.3° (Epoch: 17 April)

Event Time Altitude Azimuth Distance (km) Brightness Sun altitude
Rises 04:57:26 0° 244° (WSW) 2,961 11.2 41.2°
Reaches altitude 10° 04:59:54 10° 251° (WSW) 2,028 10.5 40.9°
Maximum altitude 05:04:23 46° 324° (NW) 830 8.1 40.4°
Drops below altitude 10° 05:08:39 10° 39° (NE) 1,922 9.2 39.8°
Sets 05:10:56 0° 45° (NE) 2,790 9.9 39.5°
